STARLINK-34283, 64214

Orbit data source: Space-Track

STARLINK-34283, 64214 is a payload satellite owned by SpaceX/Seattle (US) in LEO that was launched on Sat, 31 May 2025 UTC via an FALCON 9 launch vehicle from the Air Force Western Test Range (AFWTR). Payload-class satellites include a variety of spacecraft equipped with specific instruments for various scientific and technological missions. These include communications satellites like Starlink; space stations such as the ISS; scientific satellites like the Hubble; Earth observation satellites from companies like Planet Labs, Umbra, and HawkEye 360; GPS; miniature CubeSats for education and research; and military/defense satellites.

Loading next visibility...
Identifier
64214, 2025-117M
Orbit
LEO
Country
Flag of USUS
Related business
Manufacturer
SpaceX/Seattle
Mission
Operational Commercial Communications
Bus & Motor
STARLINK V2MO, Unknown motor
Mass
575 kg wet, ~530 kg dry
Launch date (UTC)
2025-05-31 (1 year ago)
Launch vehicle
FALCON 9
Launch site
Air Force Western Test Range (AFWTR)
Object type
Payload
Rocket body
Debris
Shape & HBR
Box + 1 Pan, 17.7 m
Radar Cross Section
41.120 m², Large (>1 m²)

Expand to show TLE details & history
Last TLE update: 1 day ago

TLE from 1 day ago
0 STARLINK-34283
1 64214U 25117M   26235.33217611  .00020104  00000-0  60471-3 0  9993
2 64214  53.1596 341.7229 0002374 113.3384 246.7868 15.34390800 70095
Epoch: 2026-08-23T07:58Z
TLE epoch observation values (Epoch: 2026-08-23T07:58:20.015Z)
Latitude
-0.00009°
Longitude
-109.49031°
Altitude
464.272 km
Speed
7.635 km/s
True Right ascension
22h 46m 53s
True Declination
0° 00' 00"
Sunlit
Object was in full shadow at epoch
Visualization orbit readout
Latitude
Unknown
Longitude
Unknown
Altitude
Unknown
Speed
Unknown
Apparent Right ascension
Unknown
Apparent Declination
Unknown
Sunlit
N/A
Visualization observer readout
Local Sidereal Time
23:04:48
Azimuth
Unknown
Elevation
Unknown
Doppler factor
Unknown
Orbital elements
Apogee altitude
464.612 km
Perigee altitude
461.363 km
Semi-major axis
6,841.125 km
Eccentricity
0.00024
Inclination
53.1596°
RAAN
341.7229°
Arg. of periapsis
113.3384°
True anomaly
246.7618°
Mean anomaly
246.7868°
Eccentric anomaly
246.7743°
Mean motion
3.83576 °/min
Orbital period
93.85 mins
BSTAR
0.00060471
Loading maneuver chart data...
Computing Atmospheric mass density...
Loading historical data...
Loading historical data...
Loading historical data...
Loading historical data...
Loading historical data...
Loading historical data...
Loading historical data...

Documentation

Showing up to 5 results
|